| time (UTC) | temp F | wind direction | speed MPH | gust MPH | rain 1hr in | rain 24hr in | rain mn in | humidity % | barometer mb |
| 20260504050317 | 64 | 153 | 2.0 | 3.0 | 0.00 | 0.00 | 0.00 | 72 | 1017.8 |
| 20260504045814 | 64 | 145 | 4.0 | 5.0 | 0.00 | 0.00 | 0.00 | 72 | 1017.9 |
| 20260504045314 | 64 | 143 | 6.0 | 9.0 | 0.00 | 0.00 | 0.00 | 72 | 1018.0 |
| 20260504044812 | 64 | 154 | 4.0 | 9.0 | 0.00 | 0.00 | 0.00 | 72 | 1017.9 |
| 20260504044309 | 64 | 175 | 4.0 | 5.0 | 0.00 | 0.00 | 0.00 | 71 | 1017.9 |
| 20260504043806 | 64 | 166 | 5.0 | 7.0 | 0.00 | 0.00 | 0.00 | 71 | 1018.0 |
| 20260504043303 | 64 | 138 | 2.0 | 2.0 | 0.00 | 0.00 | 0.00 | 70 | 1017.9 |
| 20260504042801 | 64 | 150 | 2.0 | 3.0 | 0.00 | 0.00 | 0.00 | 70 | 1018.2 |
| 20260504042257 | 64 | 171 | 6.0 | 9.0 | 0.00 | 0.00 | 0.00 | 70 | 1018.0 |
| 20260504041753 | 64 | 158 | 3.0 | 5.0 | 0.00 | 0.00 | 0.00 | 70 | 1018.0 |
| 20260504041249 | 64 | 135 | 5.0 | 7.0 | 0.00 | 0.00 | 0.00 | 69 | 1018.0 |
| 20260504040745 | 63 | 155 | 5.0 | 7.0 | 0.00 | 0.00 | 0.00 | 70 | 1018.2 |
| 20260504040243 | 63 | 158 | 2.0 | 3.0 | 0.00 | 0.00 | 0.00 | 72 | 1018.0 |
| 20260504035739 | 62 | 151 | 0.0 | 0.0 | 0.00 | 0.00 | 0.00 | 74 | 1018.2 |
| 20260504035236 | 61 | 148 | 0.0 | 0.0 | 0.00 | 0.00 | 0.00 | 75 | 1018.2 |
| 20260504034734 | 61 | 141 | 0.0 | 0.0 | 0.00 | 0.00 | 0.00 | 77 | 1018.1 |
| 20260504034231 | 61 | 136 | 1.0 | 2.0 | 0.00 | 0.00 | 0.00 | 77 | 1018.1 |
| 20260504033728 | 61 | 138 | 2.0 | 2.0 | 0.00 | 0.00 | 0.00 | 76 | 1018.0 |
| 20260504033226 | 62 | 138 | 2.0 | 2.0 | 0.00 | 0.00 | 0.00 | 76 | 1018.1 |
| 20260504032723 | 62 | 145 | 1.0 | 2.0 | 0.00 | 0.00 | 0.00 | 75 | 1018.1 |
| 20260504032220 | 61 | 138 | 2.0 | 2.0 | 0.00 | 0.00 | 0.00 | 77 | 1018.1 |
| 20260504031716 | 62 | 135 | 2.0 | 3.0 | 0.00 | 0.00 | 0.00 | 77 | 1017.9 |
| 20260504031214 | 62 | 131 | 3.0 | 3.0 | 0.00 | 0.00 | 0.00 | 75 | 1017.8 |
| 20260504030704 | 62 | 137 | 2.0 | 2.0 | 0.00 | 0.00 | 0.00 | 75 | 1018.1 |
| 20260504030202 | 63 | 126 | 2.0 | 3.0 | 0.00 | 0.00 | 0.00 | 74 | 1018.1 |
| 20260504025658 | 63 | 134 | 2.0 | 3.0 | 0.00 | 0.00 | 0.00 | 72 | 1017.9 |
| 20260504025155 | 64 | 138 | 2.0 | 2.0 | 0.00 | 0.00 | 0.00 | 71 | 1018.0 |
| 20260504024652 | 65 | 134 | 3.0 | 3.0 | 0.00 | 0.00 | 0.00 | 68 | 1018.0 |
| 20260504024148 | 65 | 135 | 2.0 | 3.0 | 0.00 | 0.00 | 0.00 | 66 | 1018.1 |
| 20260504023645 | 66 | 134 | 2.0 | 2.0 | 0.00 | 0.00 | 0.00 | 66 | 1018.0 |
| 20260504023141 | 66 | 145 | 2.0 | 2.0 | 0.00 | 0.00 | 0.00 | 66 | 1018.1 |
| 20260504022637 | 66 | 143 | 2.0 | 3.0 | 0.00 | 0.00 | 0.00 | 65 | 1017.9 |
| 20260504022133 | 65 | 144 | 2.0 | 2.0 | 0.00 | 0.00 | 0.00 | 67 | 1017.8 |
| 20260504021632 | 65 | 135 | 2.0 | 2.0 | 0.00 | 0.00 | 0.00 | 68 | 1017.6 |
| 20260504021128 | 65 | 136 | 1.0 | 2.0 | 0.00 | 0.00 | 0.00 | 68 | 1017.6 |
| 20260504020625 | 65 | 141 | 2.0 | 2.0 | 0.00 | 0.00 | 0.00 | 67 | 1017.6 |
| 20260504020121 | 65 | 142 | 1.0 | 2.0 | 0.00 | 0.00 | 0.00 | 68 | 1017.5 |
| 20260504015618 | 65 | 143 | 2.0 | 3.0 | 0.00 | 0.00 | 0.00 | 68 | 1017.7 |
| 20260504015114 | 67 | 145 | 2.0 | 2.0 | 0.00 | 0.00 | 0.00 | 67 | 1017.5 |
| 20260504014610 | 68 | 135 | 2.0 | 3.0 | 0.00 | 0.00 | 0.00 | 62 | 1017.3 |
| 20260504014107 | 68 | 147 | 1.0 | 2.0 | 0.00 | 0.00 | 0.00 | 60 | 1017.5 |
| 20260504013605 | 68 | 141 | 2.0 | 2.0 | 0.00 | 0.00 | 0.00 | 59 | 1017.4 |
| 20260504013101 | 69 | 159 | 2.0 | 3.0 | 0.00 | 0.00 | 0.00 | 58 | 1017.3 |
| 20260504012559 | 69 | 150 | 1.0 | 2.0 | 0.00 | 0.00 | 0.00 | 58 | 1017.4 |
| 20260504012057 | 69 | 141 | 2.0 | 2.0 | 0.00 | 0.00 | 0.00 | 57 | 1017.3 |
| 20260504011554 | 69 | 146 | 2.0 | 3.0 | 0.00 | 0.00 | 0.00 | 56 | 1017.5 |
| 20260504011050 | 70 | 150 | 0.0 | 0.0 | 0.00 | 0.00 | 0.00 | 56 | 1017.4 |
| 20260504010545 | 70 | 144 | 2.0 | 2.0 | 0.00 | 0.00 | 0.00 | 55 | 1017.3 |
| 20260504010042 | 70 | 148 | 1.0 | 2.0 | 0.00 | 0.00 | 0.00 | 56 | 1017.4 |
| 20260504005538 | 71 | 156 | 2.0 | 2.0 | 0.00 | 0.00 | 0.00 | 56 | 1017.4 |
| 20260504005036 | 71 | 149 | 1.0 | 2.0 | 0.00 | 0.00 | 0.00 | 54 | 1017.2 |
| 20260504004534 | 72 | 138 | 2.0 | 3.0 | 0.00 | 0.00 | 0.00 | 53 | 1017.1 |
| 20260504004030 | 72 | 153 | 2.0 | 2.0 | 0.00 | 0.00 | 0.00 | 52 | 1017.2 |
| 20260504003526 | 72 | 154 | 0.0 | 0.0 | 0.00 | 0.00 | 0.00 | 52 | 1017.2 |
| 20260504003023 | 73 | 153 | 0.0 | 0.0 | 0.00 | 0.00 | 0.00 | 52 | 1017.4 |
| 20260504002520 | 73 | 151 | 1.0 | 2.0 | 0.00 | 0.00 | 0.00 | 50 | 1017.4 |
| 20260504002018 | 73 | 154 | 2.0 | 2.0 | 0.00 | 0.00 | 0.00 | 50 | 1017.6 |
| 20260504001515 | 73 | 157 | 2.0 | 3.0 | 0.00 | 0.00 | 0.00 | 48 | 1017.3 |
| 20260504001011 | 74 | 156 | 0.0 | 0.0 | 0.00 | 0.00 | 0.00 | 49 | 1017.5 |
| 20260504000508 | 74 | 162 | 4.0 | 5.0 | 0.00 | 0.00 | 0.00 | 47 | 1017.6 |
| 20260504000005 | 74 | 149 | 3.0 | 3.0 | 0.00 | 0.00 | 0.00 | 47 | 1017.6 |
| 20260503235503 | 74 | 164 | 1.0 | 2.0 | 0.00 | 0.00 | 0.00 | 47 | 1017.7 |
| 20260503235000 | 75 | 159 | 1.0 | 3.0 | 0.00 | 0.00 | 0.00 | 47 | 1017.8 |
| 20260503234458 | 75 | 158 | 2.0 | 3.0 | 0.00 | 0.00 | 0.00 | 48 | 1017.8 |
| 20260503233956 | 76 | 154 | 3.0 | 3.0 | 0.00 | 0.00 | 0.00 | 46 | 1017.8 |
| 20260503233452 | 77 | 195 | 3.0 | 5.0 | 0.00 | 0.00 | 0.00 | 46 | 1017.8 |
| 20260503232948 | 77 | 129 | 6.0 | 7.0 | 0.00 | 0.00 | 0.00 | 43 | 1017.9 |
| 20260503232445 | 77 | 157 | 0.0 | 2.0 | 0.00 | 0.00 | 0.00 | 45 | 1017.7 |
| 20260503231943 | 77 | 159 | 4.0 | 5.0 | 0.00 | 0.00 | 0.00 | 46 | 1018.0 |
| 20260503231440 | 78 | 153 | 4.0 | 5.0 | 0.00 | 0.00 | 0.00 | 46 | 1017.8 |
| 20260503230937 | 78 | 153 | 3.0 | 5.0 | 0.00 | 0.00 | 0.00 | 45 | 1018.0 |
| 20260503230433 | 77 | 147 | 4.0 | 7.0 | 0.00 | 0.00 | 0.00 | 44 | 1018.0 |
| 20260503225931 | 77 | 192 | 3.0 | 5.0 | 0.00 | 0.00 | 0.00 | 43 | 1018.1 |
| 20260503225428 | 78 | 141 | 1.0 | 2.0 | 0.00 | 0.00 | 0.00 | 46 | 1018.0 |
| 20260503224923 | 78 | 165 | 2.0 | 3.0 | 0.00 | 0.00 | 0.00 | 44 | 1018.0 |
| 20260503224420 | 77 | 168 | 2.0 | 3.0 | 0.00 | 0.00 | 0.00 | 45 | 1018.1 |
| 20260503223918 | 79 | 140 | 4.0 | 5.0 | 0.00 | 0.00 | 0.00 | 42 | 1018.0 |
| 20260503223416 | 80 | 121 | 3.0 | 3.0 | 0.00 | 0.00 | 0.00 | 39 | 1018.1 |
| 20260503222911 | 80 | 166 | 1.0 | 3.0 | 0.00 | 0.00 | 0.00 | 42 | 1018.1 |
| 20260503222410 | 80 | 204 | 3.0 | 5.0 | 0.00 | 0.00 | 0.00 | 44 | 1018.2 |
| 20260503221907 | 80 | 218 | 3.0 | 5.0 | 0.00 | 0.00 | 0.00 | 40 | 1018.2 |
| 20260503221406 | 80 | 214 | 5.0 | 7.0 | 0.00 | 0.00 | 0.00 | 42 | 1018.5 |
| 20260503220902 | 80 | 163 | 2.0 | 3.0 | 0.00 | 0.00 | 0.00 | 42 | 1018.3 |
| 20260503220358 | 80 | 188 | 5.0 | 5.0 | 0.00 | 0.00 | 0.00 | 45 | 1018.6 |
| 20260503215855 | 81 | 232 | 5.0 | 7.0 | 0.00 | 0.00 | 0.00 | 44 | 1018.5 |
| 20260503215353 | 80 | 112 | 3.0 | 5.0 | 0.00 | 0.00 | 0.00 | 43 | 1018.6 |
| 20260503214850 | 80 | 188 | 4.0 | 5.0 | 0.00 | 0.00 | 0.00 | 42 | 1018.9 |
| 20260503214347 | 80 | 133 | 7.0 | 10.0 | 0.00 | 0.00 | 0.00 | 40 | 1018.6 |
| 20260503213845 | 80 | 223 | 6.0 | 17.0 | 0.00 | 0.00 | 0.00 | 40 | 1019.0 |
| 20260503213342 | 80 | 180 | 2.0 | 3.0 | 0.00 | 0.00 | 0.00 | 41 | 1019.3 |
| 20260503212839 | 80 | 184 | 6.0 | 7.0 | 0.00 | 0.00 | 0.00 | 40 | 1019.4 |
| 20260503212337 | 80 | 129 | 7.0 | 10.0 | 0.00 | 0.00 | 0.00 | 40 | 1019.3 |
| 20260503211834 | 79 | 177 | 5.0 | 7.0 | 0.00 | 0.00 | 0.00 | 43 | 1019.6 |
| 20260503211330 | 79 | 153 | 1.0 | 2.0 | 0.00 | 0.00 | 0.00 | 43 | 1019.5 |
| 20260503210825 | 79 | 140 | 10.0 | 14.0 | 0.00 | 0.00 | 0.00 | 41 | 1019.6 |
| 20260503210323 | 79 | 134 | 5.0 | 9.0 | 0.00 | 0.00 | 0.00 | 43 | 1019.6 |
| 20260503205818 | 80 | 134 | 7.0 | 9.0 | 0.00 | 0.00 | 0.00 | 42 | 1019.4 |
| 20260503205315 | 80 | 142 | 4.0 | 7.0 | 0.00 | 0.00 | 0.00 | 38 | 1019.6 |
| 20260503204811 | 80 | 142 | 4.0 | 7.0 | 0.00 | 0.00 | 0.00 | 40 | 1019.7 |
| 20260503204309 | 79 | 139 | 4.0 | 7.0 | 0.00 | 0.00 | 0.00 | 41 | 1019.9 |
| 20260503203806 | 79 | 147 | 3.0 | 7.0 | 0.00 | 0.00 | 0.00 | 43 | 1020.1 |
| 20260503203303 | 80 | 165 | 5.0 | 7.0 | 0.00 | 0.00 | 0.00 | 39 | 1020.1 |
| 20260503202800 | 80 | 179 | 4.0 | 5.0 | 0.00 | 0.00 | 0.00 | 42 | 1020.4 |
| 20260503202258 | 80 | 145 | 3.0 | 5.0 | 0.00 | 0.00 | 0.00 | 42 | 1020.4 |
| 20260503201756 | 80 | 200 | 5.0 | 7.0 | 0.00 | 0.00 | 0.00 | 40 | 1020.5 |
| 20260503201253 | 80 | 168 | 2.0 | 3.0 | 0.00 | 0.00 | 0.00 | 44 | 1020.4 |
| 20260503200750 | 81 | 154 | 5.0 | 7.0 | 0.00 | 0.00 | 0.00 | 41 | 1020.5 |
| 20260503200245 | 80 | 162 | 2.0 | 3.0 | 0.00 | 0.00 | 0.00 | 44 | 1020.5 |
| 20260503195743 | 80 | 161 | 2.0 | 5.0 | 0.00 | 0.00 | 0.00 | 43 | 1020.6 |
| 20260503195240 | 80 | 209 | 3.0 | 5.0 | 0.00 | 0.00 | 0.00 | 43 | 1020.8 |
| 20260503194738 | 79 | 197 | 6.0 | 7.0 | 0.00 | 0.00 | 0.00 | 45 | 1020.7 |
| 20260503194233 | 79 | 175 | 2.0 | 3.0 | 0.00 | 0.00 | 0.00 | 45 | 1020.9 |
| 20260503193729 | 79 | 169 | 8.0 | 10.0 | 0.00 | 0.00 | 0.00 | 42 | 1020.8 |
| 20260503193226 | 79 | 149 | 7.0 | 7.0 | 0.00 | 0.00 | 0.00 | 39 | 1020.8 |
| 20260503192721 | 79 | 171 | 5.0 | 5.0 | 0.00 | 0.00 | 0.00 | 44 | 1021.1 |
| 20260503192217 | 80 | 180 | 5.0 | 5.0 | 0.00 | 0.00 | 0.00 | 43 | 1021.1 |
| 20260503191714 | 79 | 163 | 4.0 | 9.0 | 0.00 | 0.00 | 0.00 | 43 | 1021.2 |
| 20260503191211 | 80 | 173 | 5.0 | 7.0 | 0.00 | 0.00 | 0.00 | 41 | 1021.4 |
| 20260503190708 | 79 | 186 | 5.0 | 7.0 | 0.00 | 0.00 | 0.00 | 42 | 1021.4 |
| 20260503190204 | 79 | 142 | 3.0 | 5.0 | 0.00 | 0.00 | 0.00 | 47 | 1021.5 |
| 20260503185702 | 79 | 186 | 5.0 | 7.0 | 0.00 | 0.00 | 0.00 | 44 | 1021.5 |
| 20260503185202 | 79 | 171 | 3.0 | 5.0 | 0.00 | 0.00 | 0.00 | 46 | 1021.6 |
| 20260503184657 | 78 | 143 | 3.0 | 7.0 | 0.00 | 0.00 | 0.00 | 47 | 1021.8 |
| 20260503184153 | 78 | 206 | 4.0 | 5.0 | 0.00 | 0.00 | 0.00 | 41 | 1021.7 |
| 20260503183649 | 79 | 159 | 10.0 | 10.0 | 0.00 | 0.00 | 0.00 | 43 | 1021.7 |
| 20260503183147 | 79 | 148 | 4.0 | 7.0 | 0.00 | 0.00 | 0.00 | 48 | 1021.8 |
| 20260503182645 | 79 | 144 | 1.0 | 3.0 | 0.00 | 0.00 | 0.00 | 48 | 1021.9 |
| 20260503182144 | 78 | 202 | 10.0 | 14.0 | 0.00 | 0.00 | 0.00 | 40 | 1022.1 |
| 20260503181641 | 79 | 196 | 5.0 | 7.0 | 0.00 | 0.00 | 0.00 | 43 | 1022.3 |
| 20260503181138 | 78 | 170 | 5.0 | 10.0 | 0.00 | 0.00 | 0.00 | 44 | 1022.2 |
| 20260503180635 | 78 | 181 | 4.0 | 9.0 | 0.00 | 0.00 | 0.00 | 44 | 1022.3 |
| 20260503180132 | 78 | 159 | 4.0 | 7.0 | 0.00 | 0.00 | 0.00 | 45 | 1022.4 |
| 20260503175629 | 78 | 170 | 4.0 | 5.0 | 0.00 | 0.00 | 0.00 | 45 | 1022.4 |
| 20260503175126 | 77 | 231 | 6.0 | 7.0 | 0.00 | 0.00 | 0.00 | 44 | 1022.5 |
| 20260503174622 | 78 | 237 | 4.0 | 7.0 | 0.00 | 0.00 | 0.00 | 45 | 1022.6 |
| 20260503174119 | 77 | 200 | 4.0 | 5.0 | 0.00 | 0.00 | 0.00 | 47 | 1022.8 |
| 20260503173614 | 77 | 155 | 4.0 | 7.0 | 0.00 | 0.00 | 0.00 | 47 | 1022.8 |
| 20260503173111 | 77 | 215 | 5.0 | 7.0 | 0.00 | 0.00 | 0.00 | 49 | 1022.9 |
| 20260503172608 | 77 | 181 | 5.0 | 7.0 | 0.00 | 0.00 | 0.00 | 48 | 1022.9 |
| 20260503172106 | 76 | 202 | 5.0 | 7.0 | 0.00 | 0.00 | 0.00 | 47 | 1023.1 |
| 20260503171603 | 77 | 205 | 4.0 | 7.0 | 0.00 | 0.00 | 0.00 | 47 | 1023.2 |
| 20260503171100 | 77 | 215 | 5.0 | 7.0 | 0.00 | 0.00 | 0.00 | 46 | 1023.4 |
| 20260503170555 | 77 | 164 | 5.0 | 7.0 | 0.00 | 0.00 | 0.00 | 46 | 1023.4 |
| 20260503150942 | 71 | 171 | 2.0 | 3.0 | 0.00 | 0.00 | 0.00 | 65 | 1023.7 |
| 20260503150433 | 71 | 194 | 3.0 | 3.0 | 0.00 | 0.00 | 0.00 | 70 | 1023.4 |
| 20260503131320 | 53 | 136 | 0.0 | 0.0 | 0.00 | 0.00 | 0.00 | 99 | 1023.0 |
| 20260503130818 | 54 | 158 | 0.0 | 0.0 | 0.00 | 0.00 | 0.00 | 99 | 1023.0 |
| 20260503130315 | 53 | 158 | 0.0 | 0.0 | 0.00 | 0.00 | 0.00 | 99 | 1022.8 |
| 20260503110703 | 50 | 135 | 0.0 | 0.0 | 0.00 | 0.00 | 0.00 | 99 | 1021.9 |
| 20260503110200 | 50 | 135 | 0.0 | 0.0 | 0.00 | 0.00 | 0.00 | 99 | 1021.9 |
| 20260503100126 | 50 | 133 | 0.0 | 0.0 | 0.00 | 0.00 | 0.00 | 99 | 1021.6 |
| 20260503081516 | 50 | 132 | 0.0 | 0.0 | 0.00 | 0.00 | 0.00 | 98 | 1021.7 |
| 20260503081013 | 51 | 132 | 0.0 | 0.0 | 0.00 | 0.00 | 0.00 | 98 | 1021.6 |
| 20260503080509 | 51 | 132 | 0.0 | 0.0 | 0.00 | 0.00 | 0.00 | 98 | 1021.6 |
| 20260503072443 | 51 | 132 | 0.0 | 0.0 | 0.00 | 0.00 | 0.00 | 98 | 1021.9 |
| 20260503071940 | 51 | 132 | 0.0 | 0.0 | 0.00 | 0.00 | 0.00 | 98 | 1022.0 |
| 20260503071437 | 51 | 132 | 0.0 | 0.0 | 0.00 | 0.00 | 0.00 | 98 | 1022.0 |
| 20260503070933 | 51 | 132 | 0.0 | 0.0 | 0.00 | 0.00 | 0.00 | 98 | 1021.9 |
| 20260503070430 | 52 | 132 | 0.0 | 0.0 | 0.00 | 0.00 | 0.00 | 98 | 1022.1 |
| 20260503054843 | 53 | 132 | 0.0 | 0.0 | 0.00 | 0.00 | 0.00 | 97 | 1022.2 |
| 20260503054339 | 54 | 132 | 0.0 | 0.0 | 0.00 | 0.00 | 0.00 | 97 | 1022.3 |
| 20260503053837 | 54 | 132 | 0.0 | 0.0 | 0.00 | 0.00 | 0.00 | 97 | 1022.3 |
| 20260503053336 | 54 | 132 | 0.0 | 0.0 | 0.00 | 0.00 | 0.00 | 97 | 1022.2 |
| 20260503052831 | 54 | 132 | 0.0 | 0.0 | 0.00 | 0.00 | 0.00 | 97 | 1022.3 |
| 20260503052329 | 54 | 132 | 0.0 | 0.0 | 0.00 | 0.00 | 0.00 | 97 | 1022.1 |